Вернуться в каталог

FENGYUN 1C DEB

LostPO
NORAD 31745·DEBRIS·🇨🇳 China

Запущен May 10, 1999 с Taiyuan Satellite Launch Center

Loading…

Ближайшие Пролёты (ближайшие 24 часа)

TLE

УстаревшееSource: Space-Track

Эпоха: Jul 5, 2023, 18:29 UTC

1 31745U 99025CEU 23186.77072995  .00004008  00000-0  13971-2 0  9996
2 31745  96.7372  10.8670 0455265 212.9182 144.2868 13.90372712182593

Отслеживайте FENGYUN 1C DEB в реальном времени с AllMySat

Download on the App Store